Orbital Elements at Epoch 2459200.5 (2020-Dec-17.0) TDB
Reference: JPL 16 (heliocentric ecliptic J2000)
Element | Value | Uncertainty (1-sigma) | Units |
e | .1140558731935982 | 4.1746e-08 | |
a | 2.39415880343491 | 1.2248e-08 | au |
q | 2.121090930545002 | 9.7799e-08 | au |
i | 3.116208776134916 | 5.3271e-06 | deg |
node | 119.4122866988248 | 7.745e-05 | deg |
peri | 86.03781478109684 | 8.0927e-05 | deg |
M | 146.1875792733876 | 2.4552e-05 | deg |
tp | 2458651.040317168031 (2019-Jun-16.54031717) | 9.1089e-05 | TDB |
period | 1353.093654075699 3.70 | 1.0384e-05 2.843e-08 | d yr |
n | .2660569716779263 | 2.0417e-09 | deg/d |
Q | 2.667226676324819 | 1.3645e-08 | au |
|
| | Orbit Determination Parameters
Additional Information
|